GW7784 Weather Reports


time (UTC)temp
C
wind
direction
speed
KPH
gust
KPH
rain 1hr
cm
rain 24hr
cm
rain mn
cm
humidity
%
barometer
mb
20260906003137 26 275 0.0 0.0 0.00 0.00 0.00 90 987.1
20260906002853 26 275 0.0 0.0 0.00 0.00 0.00 90 987.4
20260906002350 26 275 0.0 0.0 0.00 0.00 0.00 89 987.3
20260906001625 26 275 0.0 0.0 0.00 0.00 0.00 89 987.5
20260906001344 26 275 0.0 0.0 0.00 0.00 0.00 89 987.7
20260906000836 26 275 0.0 0.0 0.00 0.00 0.00 89 987.7
20260906000113 26 275 0.0 0.0 0.00 0.00 0.00 88 988.0
20260905235609 26 275 0.0 0.0 0.00 0.00 0.00 87 987.8
20260905235327 27 275 0.0 0.0 0.00 0.00 0.00 87 987.9
20260905234601 27 275 0.0 0.0 0.00 0.00 0.00 87 987.8
20260905234058 27 275 1.6 1.6 0.00 0.00 0.00 86 987.8
20260905233553 27 275 1.6 1.6 0.00 0.00 0.00 85 987.7
20260905233049 27 275 0.0 0.0 0.00 0.00 0.00 85 987.7
20260905232545 27 275 0.0 1.6 0.00 0.00 0.00 85 987.6
20260905232041 27 275 1.6 1.6 0.00 0.00 0.00 85 987.6
20260905231537 27 275 0.0 1.6 0.00 0.00 0.00 85 987.6
20260905231034 28 275 0.0 1.6 0.00 0.00 0.00 84 987.2
20260905230529 28 275 0.0 1.6 0.00 0.00 0.00 83 987.4
20260905230024 28 275 1.6 1.6 0.00 0.00 0.00 81 987.1
20260905225238 28 275 1.6 1.6 0.00 0.00 0.00 79 987.5
20260905224513 28 275 0.0 1.6 0.00 0.00 0.00 78 987.3
20260905224008 28 275 0.0 1.6 0.00 0.00 0.00 77 987.2
20260905223505 29 275 1.6 1.6 0.00 0.00 0.00 77 987.2
20260905223001 29 275 1.6 1.6 0.00 0.00 0.00 75 987.4
20260905222457 30 275 0.0 3.2 0.00 0.00 0.00 71 987.4
20260905221953 30 275 1.6 1.6 0.00 0.00 0.00 69 987.4
20260905221449 30 275 1.6 3.2 0.00 0.00 0.00 69 987.3
20260905221205 31 275 0.0 1.6 0.00 0.00 0.00 69 987.2
20260905220440 31 275 1.6 1.6 0.00 0.00 0.00 68 987.2
20260905215937 32 275 0.0 1.6 0.00 0.00 0.00 62 987.3
20260905215433 32 231 0.0 3.2 0.00 0.00 0.00 66 987.3
20260905214928 32 231 0.0 1.6 0.00 0.00 0.00 63 987.4
20260905214425 33 231 1.6 3.2 0.00 0.00 0.00 58 987.3
20260905213920 33 5 0.0 3.2 0.00 0.00 0.00 53 987.5
20260905213417 33 10 1.6 3.2 0.00 0.00 0.00 61 987.5
20260905212913 34 33 1.6 3.2 0.00 0.00 0.00 59 987.4
20260905212408 35 33 1.6 3.2 0.00 0.00 0.00 56 987.2
20260905211905 34 33 3.2 3.2 0.00 0.00 0.00 54 987.3
20260905211401 35 293 0.0 3.2 0.00 0.00 0.00 53 987.2
20260905210857 35 293 1.6 3.2 0.00 0.00 0.00 52 987.6
20260905210353 36 292 3.2 4.8 0.00 0.00 0.00 48 987.3
20260905205848 36 302 0.0 1.6 0.00 0.00 0.00 52 987.6
20260905205606 35 63 1.6 12.9 0.00 0.00 0.00 51 987.7
20260905204841 35 302 0.0 1.6 0.00 0.00 0.00 55 987.6
20260905204337 36 9 1.6 3.2 0.00 0.00 0.00 52 987.8
20260905203835 37 3 1.6 4.8 0.00 0.00 0.00 48 987.7
20260905203814 36 200 3.2 6.4 0.00 0.00 0.00 47 987.8
20260905202825 36 82 0.0 12.9 0.00 0.00 0.00 47 987.6
20260905202321 36 334 0.0 4.8 0.00 0.00 0.00 48 987.8
20260905201817 36 111 1.6 3.2 0.00 0.00 0.00 46 987.9
20260905201533 36 238 0.0 3.2 0.00 0.00 0.00 49 988.2
20260905201029 36 235 0.0 3.2 0.00 0.00 0.00 51 988.2
20260905200305 36 48 3.2 6.4 0.00 0.00 0.00 49 988.3
20260905195800 36 220 1.6 1.6 0.00 0.00 0.00 48 988.2
20260905195257 36 220 3.2 3.2 0.00 0.00 0.00 46 988.5
20260905194753 36 254 0.0 1.6 0.00 0.00 0.00 48 988.4
20260905194249 36 240 1.6 1.6 0.00 0.00 0.00 52 988.4
20260905193745 36 239 3.2 6.4 0.00 0.00 0.00 46 988.8
20260905193241 36 202 1.6 3.2 0.00 0.00 0.00 50 988.6
20260905192737 35 279 1.6 3.2 0.00 0.00 0.00 53 988.8
20260905192235 35 358 0.0 1.6 0.00 0.00 0.00 49 988.7
20260905191728 35 75 0.0 4.8 0.00 0.00 0.00 50 988.8
20260905191225 35 154 3.2 4.8 0.00 0.00 0.00 49 989.0
20260905190721 35 262 0.0 1.6 0.00 0.00 0.00 49 989.0
20260905190217 35 205 1.6 3.2 0.00 0.00 0.00 49 989.2
20260905185430 35 191 1.6 4.8 0.00 0.00 0.00 51 989.1
20260905184705 35 260 1.6 3.2 0.00 0.00 0.00 50 989.1
20260905184201 35 242 1.6 1.6 0.00 0.00 0.00 48 989.3
20260905183917 35 241 0.0 3.2 0.00 0.00 0.00 50 989.4
20260905183153 35 328 3.2 4.8 0.00 0.00 0.00 51 989.3
20260905182649 34 185 3.2 6.4 0.00 0.00 0.00 53 989.6
20260905182145 34 331 1.6 4.8 0.00 0.00 0.00 50 989.7
20260905181641 34 273 1.6 3.2 0.00 0.00 0.00 52 989.7
20260905181137 34 270 3.2 3.2 0.00 0.00 0.00 50 989.9
20260905180634 34 314 0.0 4.8 0.00 0.00 0.00 49 989.9
20260905180347 33 308 1.6 3.2 0.00 0.00 0.00 49 990.0
20260905175624 33 308 1.6 3.2 0.00 0.00 0.00 50 989.9
20260905175341 34 307 3.2 3.2 0.00 0.00 0.00 49 989.9
20260905174616 34 123 3.2 4.8 0.00 0.00 0.00 51 990.1
20260905174113 33 106 0.0 4.8 0.00 0.00 0.00 51 990.3
20260905173609 33 306 0.0 4.8 0.00 0.00 0.00 51 990.4
20260905173105 33 259 1.6 4.8 0.00 0.00 0.00 55 990.3
20260905172600 33 96 3.2 4.8 0.00 0.00 0.00 52 990.4
20260905172318 33 52 1.6 6.4 0.00 0.00 0.00 55 990.5
20260905171553 33 47 6.4 9.7 0.00 0.00 0.00 52 990.7
20260905171048 32 168 1.6 3.2 0.00 0.00 0.00 55 990.5
20260905170545 32 350 3.2 4.8 0.00 0.00 0.00 54 990.7
20260905170041 33 52 1.6 4.8 0.00 0.00 0.00 54 990.8
20260905165537 33 161 1.6 9.7 0.00 0.00 0.00 53 990.6
20260905165034 32 89 8.0 11.3 0.00 0.00 0.00 52 990.6
20260905164528 32 81 4.8 6.4 0.00 0.00 0.00 52 990.7
20260905164024 32 124 1.6 3.2 0.00 0.00 0.00 54 990.8
20260905163520 32 88 0.0 6.4 0.00 0.00 0.00 55 990.6
20260905163017 32 21 1.6 6.4 0.00 0.00 0.00 55 990.7
20260905162512 31 56 3.2 6.4 0.00 0.00 0.00 54 990.9
20260905162009 31 74 1.6 9.7 0.00 0.00 0.00 54 990.7
20260905161505 32 122 3.2 6.4 0.00 0.00 0.00 54 990.6
20260905161001 31 132 3.2 4.8 0.00 0.00 0.00 55 990.7
20260905160457 31 59 4.8 6.4 0.00 0.00 0.00 55 991.0
20260905160212 31 90 6.4 11.3 0.00 0.00 0.00 55 990.8
20260905155449 31 79 3.2 6.4 0.00 0.00 0.00 54 990.7
20260905154945 31 110 1.6 4.8 0.00 0.00 0.00 55 990.9
20260905154441 31 91 8.0 9.7 0.00 0.00 0.00 54 991.2
20260905153937 31 135 3.2 4.8 0.00 0.00 0.00 56 991.2
20260905153435 31 46 6.4 11.3 0.00 0.00 0.00 56 991.2
20260905152929 31 90 8.0 11.3 0.00 0.00 0.00 56 991.3
20260905152424 31 84 4.8 11.3 0.00 0.00 0.00 57 991.3
20260905151920 30 122 1.6 6.4 0.00 0.00 0.00 58 991.4
20260905151417 30 99 3.2 9.7 0.00 0.00 0.00 57 991.6
20260905150913 30 72 8.0 17.7 0.00 0.00 0.00 57 991.5
20260905150408 30 64 6.4 11.3 0.00 0.00 0.00 59 991.3
20260905145905 30 72 6.4 9.7 0.00 0.00 0.00 59 991.2
20260905145401 30 112 0.0 4.8 0.00 0.00 0.00 61 991.1
20260905145117 30 83 1.6 9.7 0.00 0.00 0.00 62 991.4
20260905144353 30 115 3.2 9.7 0.00 0.00 0.00 62 991.1
20260905143848 30 81 8.0 14.5 0.00 0.00 0.00 63 991.3
20260905143345 29 40 3.2 16.1 0.00 0.00 0.00 64 991.5
20260905142841 30 224 8.0 14.5 0.00 0.00 0.00 66 991.6
20260905142557 29 73 4.8 11.3 0.00 0.00 0.00 69 991.5
20260905141834 28 117 6.4 17.7 0.00 0.00 0.00 70 991.3
20260905141328 28 81 6.4 14.5 0.00 0.00 0.00 71 991.5
20260905141044 28 102 0.0 1.6 0.00 0.00 0.00 78 991.2
20260905140320 28 352 0.0 3.2 0.00 0.00 0.00 76 991.1
20260905135816 27 71 1.6 3.2 0.00 0.00 0.00 80 991.1
20260905135313 26 71 1.6 1.6 0.00 0.00 0.00 86 991.2
20260905134809 26 71 1.6 1.6 0.00 0.00 0.00 89 991.2
20260905134305 26 71 1.6 1.6 0.00 0.00 0.00 89 991.1
20260905134021 26 71 0.0 0.0 0.00 0.00 0.00 89 991.1
20260905133256 26 71 1.6 1.6 0.00 0.00 0.00 87 991.3
20260905133015 26 71 0.0 1.6 0.00 0.00 0.00 87 991.2
20260905132248 26 71 0.0 0.0 0.00 0.00 0.00 86 991.1
20260905131744 26 71 0.0 1.6 0.00 0.00 0.00 89 991.2
20260905131501 26 71 0.0 3.2 0.00 0.00 0.00 88 991.3
20260905130736 25 71 0.0 0.0 0.00 0.00 0.00 89 991.1
20260905130235 25 71 0.0 1.6 0.00 0.00 0.00 91 991.0
20260905125729 24 71 0.0 0.0 0.00 0.00 0.00 92 991.2
20260905125224 23 71 0.0 0.0 0.00 0.00 0.00 94 991.1
20260905124942 23 71 0.0 1.6 0.00 0.00 0.00 96 991.4
20260905124217 23 71 0.0 0.0 0.00 0.00 0.00 97 991.0
20260905123713 23 71 0.0 0.0 0.00 0.00 0.00 98 991.2
20260905123208 22 71 0.0 0.0 0.00 0.00 0.00 98 991.1
20260905122704 22 71 0.0 0.0 0.00 0.00 0.00 98 991.1
20260905122422 22 71 0.0 0.0 0.00 0.00 0.00 98 990.9
20260905121656 21 71 0.0 0.0 0.00 0.00 0.00 98 991.0
20260905121153 21 71 0.0 0.0 0.00 0.00 0.00 98 991.0
20260905120649 21 71 0.0 0.0 0.00 0.00 0.00 98 990.9
20260905120144 21 71 0.0 0.0 0.00 0.00 0.00 98 990.9
20260905115641 21 71 0.0 0.0 0.00 0.00 0.00 98 990.7
20260905115137 21 71 0.0 0.0 0.00 0.00 0.00 98 990.7
20260905114634 21 71 0.0 0.0 0.00 0.00 0.00 98 990.7
20260905114129 21 71 0.0 0.0 0.00 0.00 0.00 98 990.7
20260905113625 21 71 0.0 0.0 0.00 0.00 0.00 98 990.8
20260905113121 21 71 0.0 0.0 0.00 0.00 0.00 98 990.6
20260905112618 21 71 0.0 0.0 0.00 0.00 0.00 98 990.6
20260905112112 21 71 0.0 0.0 0.00 0.00 0.00 98 990.5
20260905111608 21 71 0.0 0.0 0.00 0.00 0.00 98 990.3
20260905111326 21 71 0.0 0.0 0.00 0.00 0.00 98 990.5
20260905110601 21 71 0.0 0.0 0.00 0.00 0.00 98 990.2
20260905110056 21 71 0.0 0.0 0.00 0.00 0.00 98 990.1
20260905105553 21 71 0.0 0.0 0.00 0.00 0.00 98 990.3
20260905105048 21 71 0.0 0.0 0.00 0.00 0.00 98 989.9
20260905104545 21 71 0.0 0.0 0.00 0.00 0.00 98 990.0
20260905104041 21 71 0.0 0.0 0.00 0.00 0.00 98 990.2
20260905103756 21 71 0.0 0.0 0.00 0.00 0.00 98 990.1
20260905103036 21 71 0.0 0.0 0.00 0.00 0.00 98 990.0
20260905102529 21 71 0.0 0.0 0.00 0.00 0.00 98 989.9
20260905102025 21 71 0.0 0.0 0.00 0.00 0.00 98 990.2
20260905101521 21 71 0.0 0.0 0.00 0.00 0.00 98 990.1
20260905101016 21 71 0.0 0.0 0.00 0.00 0.00 98 990.0
20260905100513 21 71 0.0 0.0 0.00 0.00 0.00 98 990.0
20260905100008 21 71 0.0 0.0 0.00 0.00 0.00 98 990.0
20260905095727 21 71 0.0 0.0 0.00 0.00 0.00 98 990.0
20260905095220 21 71 0.0 0.0 0.00 0.00 0.00 98 989.7
20260905094456 21 71 0.0 0.0 0.00 0.00 0.00 98 989.7
20260905093953 21 71 0.0 0.0 0.00 0.00 0.00 98 989.6
20260905093449 21 71 0.0 0.0 0.00 0.00 0.00 98 989.5
20260905092944 21 71 0.0 0.0 0.00 0.00 0.00 98 989.6
20260905092440 21 71 0.0 0.0 0.00 0.00 0.00 98 989.6
20260905091937 21 71 0.0 0.0 0.00 0.00 0.00 98 989.6
20260905091434 21 71 0.0 0.0 0.00 0.00 0.00 98 989.5
20260905091147 21 71 0.0 0.0 0.00 0.00 0.00 98 989.6
20260905090425 21 71 0.0 0.0 0.00 0.00 0.00 98 989.6
20260905085921 22 71 0.0 0.0 0.00 0.00 0.00 98 989.5
20260905085416 22 71 0.0 0.0 0.00 0.00 0.00 98 989.5
20260905084913 22 71 0.0 0.0 0.00 0.00 0.00 98 989.3
20260905084408 22 71 0.0 0.0 0.00 0.00 0.00 98 989.4
20260905083905 21 71 0.0 0.0 0.00 0.00 0.00 98 989.5
20260905083401 21 71 0.0 0.0 0.00 0.00 0.00 98 989.4
20260905082857 21 71 0.0 0.0 0.00 0.00 0.00 98 989.5
20260905082353 22 71 0.0 0.0 0.00 0.00 0.00 98 989.5
20260905081849 22 71 0.0 0.0 0.00 0.00 0.00 98 989.6
20260905081344 22 71 0.0 0.0 0.00 0.00 0.00 98 989.6
20260905080841 22 71 0.0 0.0 0.00 0.00 0.00 98 989.6
20260905080337 22 71 0.0 0.0 0.00 0.00 0.00 98 989.6
20260905075834 22 71 0.0 0.0 0.00 0.00 0.00 98 989.5
20260905075548 22 71 0.0 0.0 0.00 0.00 0.00 98 989.7
20260905074824 22 71 0.0 0.0 0.00 0.00 0.00 98 989.6
20260905074320 22 71 0.0 0.0 0.00 0.00 0.00 98 989.9
20260905073817 22 71 0.0 0.0 0.00 0.00 0.00 98 989.8
20260905073313 22 71 0.0 0.0 0.00 0.00 0.00 98 989.7
20260905072809 22 71 0.0 0.0 0.00 0.00 0.00 98 989.9
20260905072306 22 71 0.0 0.0 0.00 0.00 0.00 98 989.7
20260905071801 22 71 0.0 0.0 0.00 0.00 0.00 98 989.9
20260905071257 22 71 0.0 0.0 0.00 0.00 0.00 98 989.9
20260905070753 22 71 0.0 0.0 0.00 0.00 0.00 98 990.2
20260905070249 22 71 0.0 0.0 0.00 0.00 0.00 98 990.0
20260905065745 22 71 0.0 0.0 0.00 0.00 0.00 98 990.3
20260905065459 22 71 0.0 0.0 0.00 0.00 0.00 98 990.2
20260905064736 22 71 0.0 0.0 0.00 0.00 0.00 98 990.1
20260905064234 22 71 0.0 0.0 0.00 0.00 0.00 98 990.3
20260905063729 22 71 0.0 0.0 0.00 0.00 0.00 98 990.3
20260905063225 22 71 0.0 0.0 0.00 0.00 0.00 98 990.4
20260905062721 22 71 0.0 0.0 0.00 0.00 0.00 98 990.5
20260905062217 22 71 0.0 0.0 0.00 0.00 0.00 98 990.6
20260905061712 22 71 0.0 0.0 0.00 0.00 0.00 98 990.5
20260905061655 22 71 0.0 0.0 0.00 0.00 0.00 98 990.4
20260905060927 22 71 0.0 0.0 0.00 0.00 0.00 98 990.6
20260905060200 22 71 0.0 0.0 0.00 0.00 0.00 97 990.7
20260905055656 22 71 0.0 0.0 0.00 0.00 0.00 97 990.6
20260905055413 22 71 0.0 0.0 0.00 0.00 0.00 97 990.9
20260905054910 23 71 0.0 0.0 0.00 0.00 0.00 97 990.7
20260905054144 23 71 0.0 0.0 0.00 0.00 0.00 98 990.8
20260905053641 22 71 0.0 0.0 0.00 0.00 0.00 97 990.8
20260905053357 22 71 0.0 0.0 0.00 0.00 0.00 97 990.8
20260905052634 22 71 0.0 0.0 0.00 0.00 0.00 97 990.8
20260905052129 22 71 0.0 0.0 0.00 0.00 0.00 97 990.6
20260905051625 22 71 0.0 0.0 0.00 0.00 0.00 97 990.7
20260905051121 23 71 0.0 0.0 0.00 0.00 0.00 97 990.9
20260905050617 23 71 0.0 0.0 0.00 0.00 0.00 97 990.7
20260905050112 23 71 0.0 0.0 0.00 0.00 0.00 97 990.7
20260905045831 23 71 0.0 0.0 0.00 0.00 0.03 97 990.8
20260905045104 23 71 0.0 0.0 0.00 0.00 0.03 97 990.8
20260905044601 23 71 0.0 0.0 0.00 0.00 0.03 97 990.6
20260905044057 23 71 0.0 0.0 0.00 0.00 0.03 97 990.6
20260905043553 23 71 0.0 0.0 0.00 0.00 0.03 97 990.8
20260905043049 23 71 0.0 0.0 0.00 0.00 0.03 97 990.9
20260905042804 23 71 0.0 0.0 0.00 0.00 0.03 97 990.8
20260905042041 23 71 0.0 0.0 0.00 0.00 0.03 97 990.8
20260905041537 23 71 0.0 0.0 0.00 0.00 0.03 97 990.6
20260905041034 23 71 0.0 0.0 0.00 0.00 0.03 97 990.7
20260905040529 23 71 0.0 0.0 0.00 0.00 0.03 97 990.8
20260905040025 23 71 0.0 0.0 0.00 0.00 0.03 97 990.7
20260905035521 23 71 0.0 0.0 0.00 0.00 0.03 97 990.9
20260905035017 23 71 0.0 0.0 0.00 0.00 0.03 97 990.9
20260905034513 23 71 0.0 0.0 0.00 0.00 0.03 97 991.0
20260905034010 23 71 0.0 0.0 0.00 0.00 0.03 97 990.8
20260905033505 23 71 0.0 0.0 0.00 0.00 0.03 97 990.8
20260905033001 23 71 0.0 0.0 0.00 0.00 0.03 97 990.8
20260905032457 23 71 0.0 0.0 0.00 0.00 0.03 97 990.8
20260905031952 23 71 0.0 0.0 0.00 0.00 0.03 97 991.0
20260905031448 23 71 0.0 0.0 0.00 0.00 0.03 97 990.8
20260905030945 23 71 0.0 0.0 0.00 0.00 0.03 97 990.8
20260905030441 23 71 0.0 0.0 0.00 0.00 0.03 97 990.9
20260905025937 24 71 0.0 0.0 0.00 0.00 0.03 97 990.9
20260905025434 24 71 0.0 0.0 0.00 0.00 0.03 97 990.8
20260905024929 24 71 0.0 0.0 0.00 0.00 0.03 96 990.9
20260905024425 24 71 0.0 0.0 0.00 0.00 0.03 96 990.7
20260905023921 24 71 0.0 0.0 0.00 0.00 0.03 97 990.7
20260905023417 24 71 0.0 0.0 0.00 0.00 0.03 96 990.7
20260905022912 24 71 0.0 0.0 0.00 0.00 0.03 96 990.8
20260905022409 24 71 0.0 0.0 0.00 0.00 0.03 96 990.6
20260905022126 24 71 0.0 0.0 0.00 0.00 0.03 96 990.5
20260905021400 24 71 0.0 0.0 0.00 0.00 0.03 96 990.4
20260905020857 25 71 0.0 0.0 0.00 0.00 0.03 96 990.4
20260905020613 25 71 0.0 0.0 0.00 0.00 0.03 96 990.6
20260905020109 25 71 0.0 0.0 0.00 0.00 0.03 96 990.5
20260905015345 25 71 0.0 0.0 0.00 0.00 0.03 96 990.4
20260905014841 25 71 0.0 0.0 0.00 0.00 0.03 96 990.4
20260905014337 25 71 0.0 0.0 0.00 0.00 0.03 96 990.3
20260905013834 25 71 0.0 0.0 0.00 0.00 0.03 95 990.4
20260905013329 25 71 0.0 0.0 0.00 0.00 0.03 94 990.2
20260905012825 25 71 0.0 0.0 0.00 0.00 0.03 95 990.2
20260905012321 25 71 0.0 0.0 0.00 0.00 0.03 95 990.2
20260905011817 25 71 0.0 0.0 0.00 0.00 0.03 94 989.8
20260905011313 25 71 0.0 0.0 0.00 0.00 0.03 95 990.1
20260905010305 25 71 0.0 0.0 0.00 0.00 0.03 94 990.0
20260905005801 25 71 0.0 0.0 0.00 0.00 0.03 93 990.1
20260905005256 25 71 0.0 0.0 0.00 0.00 0.03 94 990.2
20260905004752 25 71 0.0 0.0 0.00 0.00 0.03 94 990.0
20260905004249 26 71 0.0 0.0 0.00 0.00 0.03 93 990.0